Home > Time Zones > World Clock > Weather > France > Caen > Past weeks

Flag for France Weather past 2 weeks in Caen, France

Now
48 °F

Overcast.


Feels Like: 44 °F
Forecast: 47 / 55 °F
Wind: 10 mph from Southwest

Location: Caen Airport

Current Time: Dec 21, 2014 at 8:06:14 AM

Latest Report: Dec 21, 2014 at 7:30 AM


Visibility: N/A

Pressure: 30.51 "Hg

Humidity: 76%

Dew point: 41 °F

Location of CaenLocation

Historic Weather in Caen — Graph

°F

Caen temperature yesterday

Maximum temperature yesterday: 50 °F (at 12:00 PM)
Minimum temperature yesterday: 43 °F (at 12:00 AM)
Average temperature yesterday: 48 °F

Past Weeks' High & Low Weather Summary

 TemperatureHumidityPressure
High55 °F (Dec 17, 3:00 PM)100% (Dec 13, 7:00 PM)30.57 "Hg (Dec 13, 7:00 PM)
Low30 °F (Dec 14, 9:00 AM)62% (Dec 6, 1:30 PM)29.50 "Hg (Dec 12, 11:00 AM)
Average46 °F86%30.09 "Hg
* Reported Dec 6 6:00 AM — Dec 21 6:30 AM, Caen, Weather by CustomWeather, © 2014

Note: Actual official high and low records may vary slightly from our data, if they occured in-between our weather recording intervals... More about our weather records

Advertising

Caen weather history for previous 24 hours

 ConditionsComfort  
Time TempWeatherWind HumidityBarometerVisibility
6:30 AM
Dec 21
48 °FOvercast.12 mph82%30.51 "HgN/A
6:00 AM46 °FOvercast.7 mph87%30.51 "HgN/A
5:30 AM46 °FOvercast.3 mph82%30.51 "HgN/A
5:00 AM46 °FOvercast.7 mph82%30.51 "HgN/A
4:30 AM46 °FOvercast.6 mph82%30.54 "HgN/A
3:30 AM46 °FOvercast.6 mph76%30.57 "HgN/A
3:00 AM46 °FOvercast.6 mph76%30.54 "HgN/A
2:30 AM46 °FOvercast.8 mph76%30.54 "HgN/A
2:00 AM46 °FOvercast.7 mph76%30.54 "HgN/A
1:30 AM46 °FOvercast.8 mph76%30.54 "HgN/A
1:00 AM46 °FOvercast.8 mph82%30.54 "HgN/A
12:30 AM46 °FOvercast.7 mph76%30.54 "HgN/A
12:00 AM46 °FOvercast.9 mph82%30.54 "HgN/A
11:30 PM
Dec 20
46 °FOvercast.6 mph76%30.54 "HgN/A
11:00 PM48 °FOvercast.8 mph71%30.54 "HgN/A
10:30 PM48 °FOvercast.6 mph71%30.54 "HgN/A
10:00 PM48 °FOvercast.9 mph76%30.51 "HgN/A
9:30 PM48 °FOvercast.9 mph76%30.51 "HgN/A
9:00 PM48 °FOvercast.10 mph71%30.51 "HgN/A
8:30 PM48 °FOvercast.9 mph76%30.51 "HgN/A
8:00 PM48 °FOvercast.12 mph71%30.51 "HgN/A
7:30 PM48 °FOvercast.12 mph71%30.51 "HgN/A
7:00 PM48 °FOvercast.12 mph71%30.48 "HgN/A
6:00 PM48 °FOvercast.10 mph71%30.48 "HgN/A
5:30 PM48 °FOvercast.10 mph71%30.45 "HgN/A
5:00 PM46 °FPartly sunny.10 mph82%30.45 "HgN/A
4:30 PM48 °FPartly sunny.14 mph76%30.45 "HgN/A
4:00 PM48 °FOvercast.13 mph76%30.45 "HgN/A
3:30 PM50 °FOvercast.15 mph71%30.42 "HgN/A
3:00 PM50 °FBroken clouds.12 mph76%30.42 "HgN/A
2:30 PM50 °FOvercast.15 mph76%30.42 "HgN/A
2:00 PM50 °FMore clouds than sun.12 mph76%30.42 "HgN/A
1:30 PM50 °FOvercast.15 mph76%30.42 "HgN/A
1:00 PM50 °FOvercast.14 mph76%30.42 "HgN/A
12:30 PM50 °FOvercast.14 mph71%30.42 "HgN/A
12:00 PM50 °FOvercast.13 mph71%30.42 "HgN/A
11:30 AM48 °FOvercast.9 mph76%30.45 "HgN/A
11:00 AM48 °FOvercast.9 mph76%30.45 "HgN/A
10:30 AM48 °FOvercast.8 mph71%30.42 "HgN/A
10:00 AM48 °FOvercast.10 mph76%30.42 "HgN/A
9:30 AM46 °FMore clouds than sun.8 mph82%30.39 "HgN/A
9:00 AM46 °FOvercast.6 mph82%30.39 "HgN/A
8:30 AM46 °FOvercast.8 mph82%30.39 "HgN/A
8:00 AM46 °FMostly cloudy.9 mph76%30.39 "HgN/A
Weather by CustomWeather, © 2014

See weather overviewHow to use our weather pages